User: anonymous   Login
Location: Los Gatos B&B
(42.6926°N, 77.0646°W)
Time: 14:54:44
(UTC-05:00)
Language:

Cosmos 2263 Rocket - Orbit

View from above orbital plane
View from above orbital plane
View from above satellite
View from above satellite

Ground track
Ground track

The orbit data is extracted from the following two-line orbital elements,

1 22803U 93059B   17059.56577075  .00000025  00000-0  36519-4 0  9990
2 22803  70.9897 118.3283 0017932 198.4531 161.5944 14.16763139212899
Epoch (UTC): 28 February 2017 13:34:42
Eccentricity: 0.0017932
inclination: 70.9897°
perigee height: 823 km
apogee height: 849 km
right ascension of ascending node: 118.3283°
argument of perigee: 198.4531°
revolutions per day: 14.16763139
mean anomaly at epoch: 161.5944°
orbit number at epoch: 21289

The dashed part of the orbit path shows where the satellite is in the earth's shadow,  

DLR